This demonstration page uses our WeatherBlox Daily Observations layout. Learn more.

Hourly Observations for November 13, 2019

Temp ( °F °C ) Dew Point ( °F °C ) Humidity (%) Winds ( mph kmh ) Pressure ( in mb ) Visibility ( mi km ) Precip ( " mm )
12:15 am 00:15 Clear 36 2.2 17 -8.2 47 47 SSW 7 11 29.94 1014 10 16.09344 0 0
12:35 am 00:35 Clear 31 -0.3 18 -8 56 56 Calm 29.94 1014 10 16.09344 0 0
12:55 am 00:55 Clear 32 0.1 17 -8.1 54 54 Calm 29.94 1014 10 16.09344 0 0
1:15 am 01:15 Clear 34 1.3 17 -8.1 50 50 SSW 3 6 29.91 1013 10 16.09344 0 0
1:35 am 01:35 Clear 33 0.7 18 -7.8 53 53 Calm 29.91 1013 10 16.09344 0 0
1:55 am 01:55 Clear 31 -0.7 19 -7.5 60 60 Calm 29.91 1013 10 16.09344 0 0
2:15 am 02:15 Clear 29 -1.5 18 -7.6 64 64 SSE 3 6 29.94 1014 10 16.09344 0 0
2:35 am 02:35 Clear 29 -1.5 18 -7.7 63 63 SSE 5 7 29.91 1013 10 16.09344 0 0
2:55 am 02:55 Clear 29 -1.5 18 -7.7 63 63 Calm 29.94 1014 10 16.09344 0 0
3:15 am 03:15 Clear 28 -2.3 20 -6.8 72 72 Calm 29.91 1013 10 16.09344 0 0
3:35 am 03:35 Clear 27 -2.9 20 -6.6 76 76 Calm 29.91 1013 10 16.09344 0 0
3:55 am 03:55 Clear 28 -2.3 21 -6 76 76 SW 3 6 29.91 1013 10 16.09344 0 0
4:15 am 04:15 Clear 30 -1.1 20 -6.5 67 67 WSW 3 6 29.88 1012 10 16.09344 0 0
4:35 am 04:35 Clear 30 -1 20 -6.5 67 67 WSW 3 6 29.88 1012 10 16.09344 0 0
4:55 am 04:55 Clear 30 -1.1 20 -6.5 67 67 Calm 29.85 1011 10 16.09344 0 0
5:15 am 05:15 Clear 29 -1.5 21 -6.3 70 70 Calm 29.91 1013 10 16.09344 0 0
5:35 am 05:35 Clear 28 -2.4 21 -6 77 77 WNW 7 11 29.91 1013 10 16.09344 0 0
5:55 am 05:55 Clear 28 -2.5 20 -6.5 74 74 WNW 5 7 29.94 1014 10 16.09344 0 0
6:15 am 06:15 Clear 29 -1.9 21 -6.3 72 72 NW 8 13 29.94 1014 10 16.09344 0 0
6:35 am 06:35 Clear 28 -2.1 20 -6.5 72 72 NW 7 11 29.91 1013 10 16.09344 0 0
6:55 am 06:55 Clear 29 -1.9 21 -6.1 73 73 NW 9 15 29.94 1014 10 16.09344 0 0
7:15 am 07:15 Clear 29 -1.5 22 -5.5 74 74 NW 8 13 29.94 1014 10 16.09344 0 0
7:35 am 07:35 Sunny 29 -1.5 23 -5 77 77 WNW 5 7 29.97 1015 10 16.09344 0 0
7:55 am 07:55 Sunny 28 -2.1 23 -5 81 81 NW 7 11 29.97 1015 10 16.09344 0 0
8:15 am 08:15 Sunny 28 -2.2 23 -4.9 82 82 W 3 6 29.97 1015 10 16.09344 0 0
8:35 am 08:35 Sunny 32 0.2 26 -3.5 76 76 WNW 7 11 30 1016 10 16.09344 0 0
8:55 am 08:55 Sunny 34 1.1 26 -3.4 72 72 NW 9 15 30 1016 10 16.09344 0 0
9:15 am 09:15 Sunny 37 2.5 27 -2.6 69 69 NNW 7 11 30 1016 10 16.09344 0 0
9:35 am 09:35 Partly Cloudy 42 5.4 29 -1.8 60 60 N 8 13 30 1016 10 16.09344 0 0
9:55 am 09:55 Cloudy 44 6.8 32 0 62 62 N 8 13 29.97 1015 10 16.09344 0 0
10:15 am 10:15 Cloudy 45 7 33 0.7 65 65 N 10 17 29.97 1015 10 16.09344 0 0
10:35 am 10:35 Mostly Cloudy 44 6.8 34 1.1 67 67 N 10 17 30 1016 10 16.09344 0 0
10:55 am 10:55 Mostly Cloudy 48 8.8 37 2.5 65 65 N 15 24 30 1016 10 16.09344 0 0
11:15 am 11:15 Cloudy 47 8.2 36 2.2 66 66 N 12 19 30 1016 10 16.09344 0 0
11:35 am 11:35 Partly Cloudy 47 8.5 36 2.4 66 66 N 8 13 30 1016 10 16.09344 0 0
11:55 am 11:55 Mostly Cloudy 49 9.4 38 3.1 65 65 N 23 37 30.03 1017 10 16.09344 0 0
12:15 pm 12:15 Cloudy 48 9.1 38 3.2 67 67 N 16 26 30 1016 10 16.09344 0 0
12:35 pm 12:35 Mostly Cloudy 49 9.7 38 3.3 65 65 NNW 18 30 29.97 1015 10 16.09344 0 0
12:55 pm 12:55 Cloudy 50 9.8 37 2.8 62 62 N 20 31 29.97 1015 10 16.09344 0 0
1:15 pm 13:15 Cloudy 48 9 37 2.5 64 64 N 18 30 30 1016 10 16.09344 0 0
1:35 pm 13:35 Cloudy 48 9 37 2.5 64 64 N 17 28 30 1016 10 16.09344 0 0
1:55 pm 13:55 Cloudy 48 9 36 2 62 62 N 20 31 30 1016 10 16.09344 0 0
2:15 pm 14:15 Cloudy 48 9.1 36 2 61 61 NNW 22 35 30.03 1017 10 16.09344 0 0
2:35 pm 14:35 Cloudy 48 9 35 1.9 61 61 N 20 31 30.03 1017 10 16.09344 0 0
2:55 pm 14:55 Cloudy 48 8.9 34 1.1 58 58 NNW 18 30 30.03 1017 10 16.09344 0 0
3:15 pm 15:15 Cloudy 47 8.2 34 1.1 61 61 N 15 24 30.03 1017 10 16.09344 0 0
3:35 pm 15:35 Partly Cloudy 47 8.3 33 0.7 59 59 N 16 26 30.06 1018 10 16.09344 0 0
3:55 pm 15:55 Partly Cloudy 47 8.1 33 0.4 59 59 N 18 30 30.06 1018 10 16.09344 0 0
4:15 pm 16:15 Partly Cloudy 46 7.5 32 0 59 59 N 18 30 30.06 1018 10 16.09344 0 0
4:35 pm 16:35 Mostly Cloudy 44 6.9 32 0 62 62 N 13 20 30.09 1019 10 16.09344 0 0
4:55 pm 16:55 Cloudy 43 6.3 32 0.1 65 65 N 8 13 30.09 1019 10 16.09344 0 0
5:15 pm 17:15 Cloudy 43 6 32 0 66 66 NNE 8 13 30.09 1019 10 16.09344 0 0
5:35 pm 17:35 Mostly Cloudy 42 5.3 32 0 69 69 NNE 7 11 30.09 1019 10 16.09344 0 0
5:55 pm 17:55 Mostly Cloudy 39 4 32 -0.2 74 74 N 6 9 30.15 1021 10 16.09344 0 0
6:15 pm 18:15 Cloudy 40 4.3 32 0 74 74 Calm 30.12 1020 10 16.09344 0 0
6:35 pm 18:35 Cloudy 39 4 32 0 75 75 Calm 30.15 1021 10 16.09344 0 0
6:55 pm 18:55 Cloudy 39 4.1 32 0 75 75 W 3 6 30.15 1021 10 16.09344 0 0
7:15 pm 19:15 Cloudy 39 3.7 32 0 77 77 WNW 3 6 30.18 1022 10 16.09344 0 0
7:35 pm 19:35 Cloudy 38 3.3 32 0 79 79 NW 3 6 30.18 1022 10 16.09344 0 0
7:55 pm 19:55 Cloudy 38 3.1 32 0 80 80 NNE 6 9 30.18 1022 10 16.09344 0 0
8:15 pm 20:15 Mostly Cloudy 35 1.6 30 -0.9 84 84 N 5 7 30.18 1022 10 16.09344 0 0
8:35 pm 20:35 Mostly Cloudy 33 0.5 29 -1.6 86 86 N 7 11 30.21 1023 10 16.09344 0 0
8:55 pm 20:55 Cloudy 34 0.9 30 -1.2 86 86 NNW 6 9 30.21 1023 10 16.09344 0 0
9:15 pm 21:15 Cloudy 35 1.7 31 -0.6 85 85 NW 5 7 30.24 1024 10 16.09344 0 0
9:35 pm 21:35 Mostly Cloudy 34 1.2 30 -1 85 85 NW 6 9 30.24 1024 10 16.09344 0 0
9:55 pm 21:55 Clear 32 0 29 -1.7 88 88 NW 5 7 30.24 1024 10 16.09344 0 0
10:15 pm 22:15 Clear 32 -0.1 29 -1.7 89 89 NW 5 7 30.24 1024 10 16.09344 0 0
10:35 pm 22:35 Clear 30 -1.2 27 -2.7 90 90 NNW 7 11 30.3 1026 10 16.09344 0 0
10:55 pm 22:55 Mostly Cloudy 32 -0.1 29 -1.5 90 90 NNW 6 9 30.27 1025 10 16.09344 0 0
11:15 pm 23:15 Mostly Cloudy 33 0.5 30 -1.1 89 89 NNW 7 11 30.27 1025 10 16.09344 0 0
11:35 pm 23:35 Mostly Cloudy 32 0 29 -1.5 90 90 N 6 9 30.27 1025 10 16.09344 0 0
11:55 pm 23:55 Partly Cloudy 30 -1.3 28 -2.3 93 93 NNW 3 6 30.3 1026 10 16.09344 0 0

Powered by AerisWeather